Ukiah, CA

7:29 PM PDT on August 30, 2016 (GMT -0700)
Ukiah Municipal

Weather History for KUKI - December, 2012

Change the Weather History Date:

Tuesday, December 11, 2012

  Actual Average Record
Temperature  
Mean Temperature 47 °F 45 °F  
Max Temperature 58 °F 55 °F 78 °F (1958)
Min Temperature 36 °F 36 °F 15 °F (1972)
Degree Days  
Heating Degree Days 18 20  
Month to date heating degree days 162 209  
Since 1 July heating degree days 605 832  
Cooling Degree Days 0 0  
Month to date cooling degree days 0 0  
Year to date cooling degree days 983 835  
Moisture  
Dew Point 40 °F    
Average Humidity 83    
Maximum Humidity 100    
Minimum Humidity 66    
Precipitation  
Precipitation 0.21 in 0.20 in 3.92 in (1937)
Month to date precipitation 5.01 1.95  
Year to date precipitation 33.85 32.35  
Since 1 July precipitation 14.93  
Snow  
Snow 0.00 in - - ()
Month to date snowfall 0.0  
Since 1 July snowfall 0.0  
Snow Depth 0.00 in    
Sea Level Pressure  
Sea Level Pressure 29.99 in    
Wind  
Wind Speed 1 mph (NE)    
Max Wind Speed 9 mph    
Max Gust Speed 12 mph    
Visibility 4 miles    
Events Fog , Rain    
T = Trace of Precipitation, MM = Missing Value Source: NWS Daily Summary

Daily Weather History Graph

Daily Weather History Graph

Search for Another Location

Airport or City:

Trip Planner

Search our weather history database for the weather conditions in past years. The results will help you decide how hot, cold, wet, or windy it might be!

Date:

Astronomy

Dec. 11, 2012 Rise Set
Actual Time 7:22 AM PST 4:50 PM PST
Civil Twilight 6:52 AM PST 5:20 PM PST
Nautical Twilight 6:18 AM PST 5:53 PM PST
Astronomical Twilight 5:46 AM PST 6:26 PM PST
Moon 5:24 AM PST (12/11) 3:34 PM PST (12/11)
Length of Visible Light 10h 27m
Length of Day
9h 27m
Waning Crescent, 4% of the Moon is Illuminated
Dec 11
Waning Crescent
Dec 13
New
Dec 19
First Quarter
Dec 28
Full
Jan 4
Last Quarter

Hourly Weather History & Observations

Time (PST) Temp. Windchill Dew Point Humidity Pressure Visibility Wind Dir Wind Speed Gust Speed Precip Events Conditions
12:56 AM 42.1 °F - 39.9 °F 92% 30.11 in 9.0 mi Calm Calm - 0.01 in   Clear
1:11 AM 39.2 °F - 37.4 °F 93% 30.11 in 5.0 mi Calm Calm - N/A   Scattered Clouds
1:18 AM 37.4 °F - 37.4 °F 100% 30.11 in 1.5 mi Calm Calm - N/A   Mostly Cloudy
1:28 AM 39.2 °F - 37.4 °F 93% 30.11 in 4.0 mi Calm Calm - N/A   Mostly Cloudy
1:45 AM 37.4 °F - 37.4 °F 100% 30.11 in 8.0 mi Calm Calm - N/A   Scattered Clouds
1:56 AM 39.0 °F - 37.0 °F 93% 30.10 in 10.0 mi Calm Calm - N/A   Mostly Cloudy
2:00 AM 39.2 °F - 37.4 °F 93% 30.11 in 1.8 mi Calm Calm - N/A   Mostly Cloudy
2:03 AM 39.2 °F - 37.4 °F 93% 30.11 in 0.8 mi Calm Calm - N/A   Mist
2:11 AM 39.2 °F - 39.2 °F 100% 30.11 in 0.2 mi Calm Calm - N/A Fog Fog
2:19 AM 39.2 °F - 39.2 °F 100% 30.11 in 0.2 mi Calm Calm - N/A Fog Fog
2:32 AM 39.2 °F - 37.4 °F 93% 30.11 in 1.0 mi Calm Calm - N/A   Mist
2:51 AM 37.4 °F - 37.4 °F 100% 30.10 in 2.5 mi Calm Calm - N/A   Overcast
2:56 AM 37.0 °F - 37.0 °F 100% 30.10 in 1.0 mi Calm Calm - N/A   Mist
3:00 AM 37.4 °F - 37.4 °F 100% 30.10 in 0.2 mi Calm Calm - N/A Fog Fog
3:35 AM 35.6 °F - 35.6 °F 100% 30.10 in 0.5 mi Calm Calm - N/A Fog Fog
3:44 AM 37.4 °F - 35.6 °F 93% 30.09 in 0.5 mi Calm Calm - N/A Fog Fog
3:51 AM 37.4 °F - 37.4 °F 100% 30.09 in 0.2 mi Calm Calm - N/A Fog Fog
4:47 AM 37.4 °F - 37.4 °F 100% 30.08 in 0.5 mi Calm Calm - N/A Fog Fog
4:54 AM 37.4 °F - 37.4 °F 100% 30.08 in 0.2 mi Calm Calm - N/A Fog Fog
4:56 AM 37.9 °F - 37.0 °F 97% 30.08 in 0.2 mi Calm Calm - N/A Fog Fog
5:33 AM 37.4 °F - 37.4 °F 100% 30.07 in 0.5 mi Calm Calm - N/A Fog Fog
5:38 AM 37.4 °F - 37.4 °F 100% 30.07 in 0.2 mi Calm Calm - N/A Fog Fog
5:53 AM 37.4 °F - 37.4 °F 100% 30.07 in 0.2 mi Calm Calm - N/A Fog Fog
5:56 AM 37.0 °F - 37.0 °F 100% 30.06 in 0.2 mi Calm Calm - N/A Fog Fog
6:40 AM 37.4 °F - 35.6 °F 93% 30.06 in 0.5 mi Calm Calm - N/A Fog Fog
6:56 AM 36.0 °F - 36.0 °F 100% 30.06 in 0.2 mi Calm Calm - N/A Fog Fog
7:22 AM 35.6 °F - 35.6 °F 100% 30.05 in 0.2 mi Calm Calm - N/A Fog Fog
7:44 AM 35.6 °F - 35.6 °F 100% 30.06 in 0.2 mi Calm Calm - N/A Fog Fog
7:56 AM 36.0 °F - 36.0 °F 100% 30.06 in 0.2 mi Calm Calm - N/A Fog Fog
9:44 AM 37.4 °F - 37.4 °F 100% 30.04 in 0.2 mi Calm Calm - 0.00 in Fog Fog
9:51 AM 39.2 °F - 39.2 °F 100% 30.04 in 0.2 mi Calm Calm - 0.00 in Fog Fog
9:56 AM 39.0 °F - 39.0 °F 100% 30.04 in 0.2 mi Calm Calm - 0.00 in Fog Fog
10:22 AM 39.2 °F - 39.2 °F 100% 30.04 in 0.8 mi Calm Calm - N/A   Mist
10:43 AM 41.0 °F - 41.0 °F 100% 30.02 in 2.0 mi Calm Calm - N/A   Overcast
10:56 AM 43.0 °F - 42.1 °F 97% 30.02 in 10.0 mi Calm Calm - N/A   Mostly Cloudy
11:08 AM 44.6 °F - 42.8 °F 93% 30.01 in 10.0 mi Calm Calm - N/A   Scattered Clouds
11:56 AM 50.0 °F - 42.1 °F 74% 29.99 in 10.0 mi Calm Calm - N/A   Clear
12:56 PM 55.9 °F - 46.0 °F 69% 29.95 in 10.0 mi Calm Calm - N/A   Clear
1:56 PM 55.9 °F - 46.0 °F 69% 29.90 in 10.0 mi Calm Calm - N/A   Clear
2:56 PM 54.0 °F - 43.0 °F 66% 29.88 in 10.0 mi North 4.6 mph - N/A   Clear
3:56 PM 51.1 °F - 42.1 °F 71% 29.87 in 10.0 mi ENE 4.6 mph - N/A   Clear
4:56 PM 50.0 °F - 42.1 °F 74% 29.86 in 10.0 mi Calm Calm - N/A   Partly Cloudy
5:56 PM 48.9 °F - 42.1 °F 77% 29.87 in 10.0 mi ENE 3.5 mph - N/A   Overcast
6:56 PM 46.9 °F - 44.1 °F 90% 29.84 in 4.0 mi Calm Calm - 0.03 in Rain Light Rain
7:30 PM 46.4 °F - 44.6 °F 93% 29.84 in 4.0 mi Calm Calm - 0.02 in Rain Light Rain
7:56 PM 46.0 °F - 44.1 °F 93% 29.83 in 3.0 mi Calm Calm - 0.10 in Rain Heavy Rain
8:21 PM 46.4 °F - 44.6 °F 93% 29.84 in 3.0 mi Calm Calm - 0.01 in Rain Light Rain
8:29 PM 46.4 °F - 44.6 °F 93% 29.84 in 3.0 mi Calm Calm - 0.01 in Rain Light Rain
8:36 PM 46.4 °F - 44.6 °F 93% 29.84 in 3.0 mi Calm Calm - 0.02 in Rain Light Rain
8:56 PM 46.0 °F - 44.1 °F 93% 29.84 in 3.0 mi Calm Calm - 0.02 in Rain Light Rain
9:00 PM 46.4 °F - 44.6 °F 93% 29.84 in 2.5 mi Calm Calm - 0.00 in Rain Light Rain
9:07 PM 46.4 °F - 44.6 °F 93% 29.84 in 2.5 mi Calm Calm - 0.01 in Rain Light Rain
9:11 PM 46.4 °F - 44.6 °F 93% 29.84 in 3.0 mi Calm Calm - 0.01 in Rain Light Rain
9:23 PM 46.4 °F - 44.6 °F 93% 29.84 in 2.5 mi Calm Calm - 0.02 in Rain Light Rain
9:36 PM 46.4 °F 44.3 °F 44.6 °F 93% 29.85 in 4.0 mi North 4.6 mph - 0.02 in Rain Light Rain
9:56 PM 46.0 °F - 45.0 °F 96% 29.84 in 4.0 mi Calm Calm - 0.03 in Rain Light Rain
10:00 PM 46.4 °F - 44.6 °F 93% 29.84 in 6.0 mi Calm Calm - 0.00 in   Overcast
10:43 PM 44.6 °F 41.4 °F 44.6 °F 100% 29.83 in 10.0 mi South 5.8 mph - 0.00 in   Overcast
10:56 PM 45.0 °F 43.5 °F 44.1 °F 97% 29.83 in 10.0 mi SSW 3.5 mph - 0.00 in   Overcast
11:45 PM 46.4 °F - 44.6 °F 93% 29.84 in 8.0 mi Calm Calm - 0.01 in Rain Light Rain
11:56 PM 46.0 °F - 44.1 °F 93% 29.83 in 10.0 mi Calm Calm - 0.02 in Rain Light Rain